www.pogodaiklimat.ru

Погода и климат >> Архив погоды >> Австралия >> Северная территория >> Милд Пойнт


ПОГОДА в Милд Пойнт

  • Прогноз погоды в Милд Пойнт
  • Монитор погоды в Милд Пойнт

АРХИВ ПОГОДЫ в Милд Пойнт

Время (UTC), дата Ветер
(напр.,м/с)
 
Видим.   Явления Облачность Т
(С)
Тd
(С)
f
(%)
Тe
(С)
Тes
(С)
Комфортность P
(гПа)
Po
(гПа)
Тmin
(С)
Tmax
(С)
R
(мм)
R24
(мм)
S
(см)
17 11.09 С 2 н/о н/о +15.4 +11.2 76 +16 +16 1016.9 1015.1
20 11.09 штиль 0 н/о н/о +11.7 +10.8 94 +11 +11 1017.5 1015.7
23 11.09 Ю 3 н/о н/о +22.0 +9.9 46 +24 +24 комфорт 1019.1 1017.3
02 12.09 В 8 н/о н/о +31.6 +4.4 18 +29 +29 жарко 1017.8 1016.0 +10.0
05 12.09 В 5 н/о н/о +32.8 +3.7 16 +30 +30 жарко 1014.3 1012.5
08 12.09 С 5 н/о н/о +31.7 +11.0 28 +32 +32 жарко 1013.2 1011.4
11 12.09 С 2 н/о н/о +22.9 +13.9 57 +26 +26 жарко 1015.7 1013.9
14 12.09 СВ 2 н/о н/о +21.3 +18.3 83 +26 +26 душно 1016.9 1015.1 +34.4
17 12.09 З 1 н/о н/о +16.4 +14.8 90 +17 +17 1016.5 1014.7
20 12.09 Ю 1 н/о н/о +15.1 +14.6 97 +16 +16 1017.0 1015.2
23 12.09 Ю 2 н/о н/о +22.9 +18.7 77 +29 +29 очень
душно
1018.7 1016.9
02 13.09 В 10 н/о н/о +31.2 +2.4 16 +29 +29 жарко 1017.3 1015.5 +13.5
05 13.09 В 5 н/о н/о +32.7 +1.7 14 +30 +30 жарко 1014.2 1012.4
08 13.09 ЮВ 3 н/о н/о +33.1 +3.9 16 +30 +30 жарко 1013.0 1011.2
11 13.09 С 2 н/о н/о +21.6 +10.1 48 +23 +23 комфорт 1014.7 1012.9
14 13.09 В 3 н/о н/о +20.6 +11.2 55 +23 +23 комфорт 1016.8 1015.0 +34.7
17 13.09 штиль 0 н/о н/о +16.7 +11.8 73 +17 +17 1015.9 1014.1
20 13.09 штиль 0 н/о н/о +15.0 +12.9 87 +15 +15 1016.8 1015.0
23 13.09 ЮВ 2 н/о н/о +23.8 +16.3 63 +27 +27 жарко 1018.5 1016.7
02 14.09 В 7 н/о н/о +30.8 +9.6 27 +30 +30 жарко 1016.7 1014.9 +13.5
05 14.09 В 5 н/о н/о +34.1 +8.0 20 +32 +32 жарко 1012.9 1011.1
08 14.09 С 7 н/о н/о +31.0 +10.9 29 +31 +31 жарко 1012.5 1010.7
11 14.09 С 1 н/о н/о +23.2 +15.0 60 +27 +27 душно 1014.6 1012.8
14 14.09 В 2 н/о н/о +20.1 +16.5 80 +23 +23 комфорт 1015.5 1013.7 +35.4
17 14.09 штиль 0 н/о н/о +17.4 +14.3 82 +17 +17 1015.1 1013.3
20 14.09 Ю 1 н/о н/о +14.9 +14.3 96 +16 +16 1015.6 1013.8
23 14.09 ЮВ 3 н/о н/о +24.4 +16.9 63 +28 +28 душно 1017.0 1015.2
02 15.09 В 8 н/о н/о +31.1 +8.8 25 +30 +30 жарко 1015.1 1013.3 +13.2
05 15.09 В 4 н/о н/о +34.2 +10.1 23 +33 +33 жарко 1012.4 1010.6
08 15.09 С 7 н/о н/о +28.9 +15.4 44 +32 +32 душно 1012.4 1010.6
11 15.09 С 2 н/о н/о +23.1 +17.6 71 +28 +28 душно 1014.3 1012.5
14 15.09 С 1 н/о н/о +20.7 +17.3 81 +25 +25 комфорт 1014.5 1012.7 +35.1
17 15.09 Ю 2 н/о н/о +19.4 +17.7 90 +22 +22 комфорт 1015.3 1013.5
20 15.09 штиль 0 н/о н/о +18.0 +17.2 95 +18 +18 1015.5 1013.7
23 15.09 Ю 1 н/о н/о +23.6 +19.5 78 +29 +29 душно 1016.5 1014.7
02 16.09 В 3 н/о н/о +32.0 +10.7 27 +32 +32 жарко 1015.1 1013.3 +17.0
05 16.09 ЮВ 4 н/о н/о +34.3 -1.7 10 +31 +31 жарко 1012.2 1010.4
08 16.09 С 6 н/о н/о +30.0 +13.3 36 +31 +31 жарко 1011.5 1009.7
11 16.09 СВ 4 н/о н/о +23.2 +16.5 66 +28 +28 душно 1013.6 1011.8
14 16.09 ЮЗ 1 н/о н/о +18.7 +16.1 85 +21 +21 комфорт 1015.2 1013.4 +36.0
17 16.09 штиль 0 н/о н/о +17.7 +16.4 92 +18 +18 1014.2 1012.4
20 16.09 штиль 0 н/о н/о +16.9 +16.1 95 +17 +17 1015.4 1013.6
23 16.09 ЮВ 2 н/о н/о +24.5 +20.4 78 +30 +30 очень
душно
1016.7 1014.9
02 17.09 В 6 н/о н/о +32.3 +11.5 28 +32 +32 жарко 1015.8 1014.0 +16.8
05 17.09 СВ 4 н/о н/о +34.8 +10.6 23 +34 +34 очень
жарко
1012.4 1010.6
08 17.09 СВ 7 н/о н/о +31.1 +13.8 35 +33 +33 душно 1012.0 1010.2
11 17.09 С 3 н/о н/о +24.7 +19.1 71 +30 +30 очень
душно
1014.6 1012.8
14 17.09 Ю 1 н/о н/о +20.1 +17.3 84 +25 +25 комфорт 1016.3 1014.5 +36.7
17 17.09 СВ 1 н/о н/о +21.9 +19.5 86 +27 +27 душно 1015.7 1013.9
20 17.09 штиль 0 н/о н/о +20.3 +18.2 88 +24 +24 комфорт 1016.3 1014.5
23 17.09 СЗ 1 н/о н/о +25.8 +20.8 74 +32 +32 очень
душно
1017.7 1015.9
02 18.09 ЮВ 3 н/о н/о +32.7 +13.4 31 +34 +34 очень
жарко
1016.5 1014.7 +17.5
05 18.09 ЮВ 5 н/о н/о +36.1 +8.0 18 +34 +34 очень
жарко
1012.8 1011.0
08 18.09 С 5 н/о н/о +33.1 +13.2 30 +34 +34 очень
жарко
1011.8 1010.0
11 18.09 С 2 н/о н/о +23.9 +16.7 64 +27 +27 жарко 1014.7 1012.9
14 18.09 З 1 н/о н/о +20.0 +16.8 82 +24 +24 комфорт 1016.0 1014.2 +37.0

 

Местоположение метеостанции Милд Пойнт (Северная территория, Австралия): широта -12.60 долгота 131.30 высота над уровнем моря 15 м.

В архиве по умолчанию представлена погода в Милд Пойнт за последнюю неделю. Архивные данные за месяц целиком и за предыдущие месяцы, начиная с января 2011 года, Вы можете получить, выбрав интересующий диапазон дат из раскрывающегося списка и нажав кнопку "Ввод!".


*Определитесь, кто Вы:
робот инопланетянин человек

Внимание! Время в таблицах - всемирное. Для получения местного времени необходимо прибавить поправку, которая равна 9.5 ч.

Смотрите также архив погоды в соседних городах и на ближайших метеорологических станциях:

Погода в Дарвине (Северная территория, Австралия) (50 км)
Погода в Батчелоре (Северная территория, Австралия) (59 км)
Погода в Пойнт Стьюарт (Северная территория, Австралия) (75 км)
Погода на Острове Дам-ин-Мирре (Северная территория, Австралия) (101 км)
Погода на Маяке Кейп-Дон (Северная территория, Австралия) (137 км)
Погода в Кейп-Доне (Северная территория, Австралия) (151 км)
Погода в Гарден-Пойнте (Северная территория, Австралия) (164 км)
Погода на Острове Батерст (Северная территория, Австралия) (167 км)
Погода в Джаберу (Северная территория, Австралия) (174 км)
Погода на Центральном плато Арнем (Северная территория, Австралия) (209 км)

Пояснения к столбцам:

Ветер - указаны скорость ветра в м/с - средняя за 10 мин, порывы в срок и между сроками (в фигурных скобках) и направление, откуда дует ветер: С - северный, СВ - северо-восточный, В - восточный, ЮВ - юго-восточный, Ю - южный, ЮЗ - юго-западный, З - западный, СЗ - северо-западный.
Видимость - горизонтальная дальность видимости в метрах или километрах. При видимости от 1 до 10 км при отсутствии осадков обычно наблюдается дымка, при ухудшении видимости до 1 км и менее - туман. В сухую погоду видимость может ухудшаться дымом, пылью или мглою.
Явления - указаны атмосферные явления, наблюдавшиеся в срок или в последний час перед сроком; фигурными скобками обозначены явления, наблюдавшиеся между сроками (за 1-3 часа до срока); квадратными скобками обозначены град или гололедные отложения с указанием их диаметра в мм.
Облачность - указаны через наклонную черту общая и нижняя облачность в баллах и высота нижней границы облаков в метрах; квадратными скобками обозначены формы облаков: Ci - перистые, Cs - перисто-слоистые, Cc - перисто-кучевые, Ac - высококучевые, As - высокослоистые, Sc - слоисто-кучевые, Ns - слоисто-дождевые, Cu - кучевые, Cb - кучево-дождевые. Подробнее классификацию облаков см. в Атласе облаков (PDF).
T - Температура воздуха - температура, измеренная на высоте 2 м над землей.
Td - Температура точки росы - температура, при понижении до которой содержащийся в воздухе водяной пар достигнет насыщения.
f - Относительная влажность воздуха - влажноcть воздуха, измеренная на высоте 2 м над землей.
Te - Эффективная температура - температура, которую ощущает одетый по сезону человек в тени. Характеристика душности погоды. При расчете учитывается влияние влажности воздуха и скорости ветра на теплоощущения человека.
Tes - Эффективная температура на солнце - температура, которую ощущает человек, с поправкой на солнечный нагрев. Характеристика знойности погоды. Зависит от высоты солнца над горизонтом, облачности и скорости ветра. Ночью, в пасмурную погоду, а также при ветре 12 м/с и более поправка равна нулю.
P - Атмосферное давление - приведенное к уровню моря атмосферное давление.
Po - Атмосферное давление - измеренное на уровне метеостанции атмосферное давление.
Tmin - Минимальная температура - минимум температуры воздуха на высоте 2 м над землей.
Tmax - Максимальная температура - максимум температуры воздуха на высоте 2 м над землей.
R - Количество осадков - Количество выпавших осадков за период времени, мм. При наведении курсора мыши на число - период времени, за который выпало указанное количество осадков.
R24 - Количество осадков - Количество выпавших осадков за 24 часа, мм.
S - Снежный покров - Высота снежного покрова, см. При наведении курсора мыши на число - состояние снежного покрова и степень покрытия местности в баллах.